Location: Veytaux
(46.4185°N, 6.9320°E)
Time: 07:58:04
(UTC+00:00)

Cosmos 2058 Rocket - Pass Details

Date: 27 May 2022
Orbit: 609 x 639 km, 82.5° (Epoch: 02 July)

Event Time Altitude Azimuth Distance (km) Brightness Sun altitude
Rises 02:23:05 0° 355° (N) 2,904 7.2 -11.8°
Reaches altitude 10° 02:25:24 10° 2° (N) 1,989 6.4 -11.5°
Maximum altitude 02:29:40 48° 76° (ENE) 810 4.1 -11.0°
Drops below altitude 10° 02:33:52 10° 152° (SSE) 1,961 5.4 -10.5°
Sets 02:36:08 0° 158° (SSE) 2,859 6.2 -10.2°
